SCP
0 0 0 0 0 0 0 0 0 0 0 0 0 0 0 1 3 4 5 5 5 4 3 3 2 2 2 2 2 2 2 2 2 2 2 2 1 1 1 1 1 1 1 1
0 0 0 0 0 0 0 0 0 0 0 0 0 0 0 1 2 3 4 5 5 4 3 3 3 3 3 2 2 2 2 2 2 2 2 2 2 1 1 1 1 1 1 1
0 0 0 0 0 0 0 0 0 0 0 0 0 0 0 1 2 3 4 5 5 4 4 4 4 4 4 3 3 3 3 2 2 2 2 2 1 1 1 1 1 1 1 1
0 0 0 0 0 0 0 0 0 0 -0 0 0 0 0 0 1 2 3 4 5 5 5 4 4 4 4 4 3 3 2 2 2 2 1 1 1 1 1 1 0 0 0 0
0 0 0 0 0 0 0 0 0 0 -0 -0 0 0 0 0 1 1 3 4 5 5 4 4 4 3 3 3 3 2 2 1 1 1 1 1 1 1 0 0 0 0 0 0
0 0 0 0 0 0 0 0 0 0 0 0 0 0 0 0 0 1 2 3 4 4 4 3 3 2 2 2 2 2 1 1 1 1 1 0 0 0 0 0 0 0 0 0
0 0 0 0 0 0 0 0 0 0 0 0 0 0 0 0 1 1 1 2 3 3 2 2 2 1 1 1 1 1 1 1 1 0 0 0 0 0 0 0 0 0 0 0
0 0 0 0 0 0 0 0 0 0 0 0 0 0 0 0 1 1 1 1 1 1 1 1 1 1 1 1 1 1 1 1 0 0 0 0 0 0 0 0 0 0 0 0
0 0 0 0 0 0 0 0 0 0 0 0 0 0 0 0 0 1 1 1 1 1 1 1 1 0 1 1 1 1 0 0 0 0 0 0 0 0 0 0 0 0 0 0
0 0 0 0 0 0 0 0 0 0 0 0 0 0 0 0 0 0 0 0 0 0 0 0 0 0 0 0 0 0 0 0 0 0 0 0 0 0 0 0 0 0 0 0
0 0 0 0 0 0 0 0 0 0 0 0 0 0 0 0 0 0 0 0 0 0 0 0 0 0 0 0 0 0 0 0 0 0 0 0 0 0 0 0 0 0 0 0
0 0 0 0 0 0 0 0 0 0 0 0 0 0 0 0 0 0 0 0 0 0 0 0 0 0 0 0 0 0 0 0 0 0 0 0 0 0 0 0 0 0 0 0
0 0 0 0 0 0 0 0 0 0 0 0 0 0 0 0 0 0 0 0 0 0 0 0 0 0 0 0 0 0 0 0 0 0 0 0 0 0 0 0 0 0 0 0
0 0 0 0 0 0 0 0 0 0 0 0 0 0 0 0 0 0 0 0 0 0 0 0 0 0 0 0 0 0 0 0 0 0 0 0 0 0 0 0 0 0 0 0
0 0 0 0 0 0 0 0 0 0 0 0 0 0 0 0 0 0 0 0 0 0 0 0 0 0 0 0 0 0 0 0 0 0 0 0 0 0 0 0 0 0 0 0
0 0 0 0 0 0 0 0 0 0 0 0 0 0 0 0 0 0 0 0 0 0 0 0 0 0 0 0 0 0 0 0 0 0 0 0 0 0 0 0 0 0 0 0
0 0 0 0 0 0 0 0 0 0 0 0 0 0 0 0 0 0 0 0 0 0 0 0 0 0 0 0 0 0 0 0 0 0 0 0 0 0 0 0 0 0 0 0
0 0 0 0 0 0 0 0 0 0 0 0 0 0 0 0 0 0 0 0 0 0 0 0 0 0 0 0 0 0 0 0 0 0 0 0 0 0 0 0 0 0 0 0
0 0 0 0 0 0 0 0 0 0 0 0 0 0 0 0 0 0 0 0 0 0 0 0 0 0 0 0 0 0 0 0 0 0 0 0 0 0 0 0 0 0 0 0
0 0 0 0 0 0 0 0 0 0 0 0 0 0 0 0 0 0 0 0 0 0 0 0 0 0 0 0 0 0 0 0 0 0 0 0 0 0 0 0 0 0 0 0
0 0 0 0 0 0 0 0 0 0 0 0 0 0 0 0 0 0 0 0 0 0 0 0 0 0 0 0 0 0 0 0 0 0 0 0 0 0 0 0 0 0 0 0
0 0 0 0 0 0 0 0 0 0 0 0 0 0 0 0 0 0 0 0 0 0 0 0 0 0 0 0 0 0 0 0 0 0 0 0 0 0 0 0 0 0 0 0
0 0 0 0 0 0 0 0 0 0 0 0 0 0 0 0 0 0 0 0 0 0 0 0 0 0 0 0 0 0 0 0 0 0 0 0 0 0 0 0 0 0 0 0
0 0 0 0 0 0 0 0 0 0 0 0 0 0 0 0 0 0 0 0 0 0 0 0 0 0 0 0 0 0 0 0 0 0 0 0 0 0 0 0 0 0 0 0
-0 0 0 0 0 0 0 0 0 0 0 0 0 0 0 0 0 0 0 0 0 0 0 0 0 0 0 0 0 0 0 0 0 0 0 0 0 0 0 0 -0 0 0 0
0 0 0 0 0 0 0 0 0 0 0 0 0 0 0 0 0 0 0 0 0 0 0 0 0 0 0 0 0 0 0 0 0 0 0 0 0 0 -0 0 0 -0 0 0
Wind_Speed
2 2 4 9 9 9 7 6 7 8 6 4 7 12 14 7 11 13 11 12 12 11 8 7 8 6 4 5 6 6 5 5 4 3 3 2 2 1 1 1 2 1 2 3
2 5 13 11 8 6 5 4 5 7 8 6 6 7 2 4 9 13 15 15 14 12 10 10 9 8 8 7 7 5 3 3 4 3 3 2 2 1 1 1 3 3 2 2
4 7 6 2 2 4 4 4 4 6 8 7 7 8 6 2 2 4 7 10 12 14 14 11 10 9 8 7 6 6 4 4 5 4 3 3 3 2 3 3 3 4 4 4
3 4 6 4 4 4 5 4 3 5 6 5 5 4 8 4 3 2 4 5 6 7 8 9 10 9 9 8 6 6 5 5 5 5 5 4 3 2 1 1 2 3 4 4
5 5 6 5 5 5 4 2 3 3 3 4 4 1 9 5 4 2 2 5 5 6 6 6 6 7 8 7 7 6 6 6 5 5 5 5 3 2 0 1 2 3 3 4
6 5 3 4 5 5 3 6 8 6 6 3 4 2 8 3 4 2 3 6 6 7 6 5 4 4 5 5 5 5 5 5 4 5 5 5 4 2 2 2 2 2 2 3
5 6 4 2 3 7 7 7 6 6 5 5 5 4 6 4 6 2 5 6 5 5 6 5 4 3 3 4 4 4 5 4 4 5 5 4 4 3 3 1 1 1 2 2
3 6 4 1 2 1 1 6 5 3 4 5 5 5 3 5 7 7 6 4 4 3 3 4 4 2 2 3 4 5 6 5 5 5 4 4 4 3 2 2 1 1 1 2
3 3 3 3 1 3 2 2 5 6 1 3 5 5 3 4 5 6 5 4 2 0 1 2 3 2 2 3 3 4 6 5 4 4 4 4 3 3 3 2 2 2 2 2
3 1 4 4 5 5 5 5 6 5 1 4 5 5 4 4 2 2 3 3 4 4 2 1 1 2 1 2 3 3 4 4 3 3 3 3 3 3 3 2 2 2 2 3
4 3 4 4 2 2 2 4 6 4 4 3 4 7 6 5 4 3 4 3 3 4 4 3 2 1 1 2 3 3 3 3 2 3 3 3 3 2 2 1 0 1 2 3
3 5 1 4 4 2 5 6 7 5 5 4 3 10 7 4 5 5 5 5 4 4 3 3 2 1 1 2 2 2 2 2 1 2 3 3 3 3 2 1 1 2 3 3
5 6 3 7 7 3 2 4 4 5 5 5 5 10 4 3 5 6 6 5 5 4 3 2 2 2 2 3 3 2 2 1 1 2 3 3 3 3 2 2 1 1 2 3
7 6 7 7 7 5 5 4 5 7 5 6 9 11 7 6 7 6 6 6 5 5 5 4 4 3 3 3 3 3 2 1 2 3 3 3 3 3 3 2 1 1 2 3
6 4 5 6 7 5 7 9 6 7 9 9 9 8 9 7 6 6 6 6 6 6 5 5 4 3 3 3 2 2 2 2 2 3 3 2 1 2 2 1 1 2 4 4
4 4 2 3 5 6 8 8 6 7 6 6 5 7 6 3 2 2 3 5 5 5 4 5 4 4 3 3 2 2 1 2 3 4 2 2 2 2 2 2 2 4 4 4
4 6 3 4 5 5 7 8 8 6 5 6 6 7 4 2 3 3 3 4 5 5 4 4 4 3 2 2 2 2 1 2 3 3 3 3 3 3 3 3 4 4 3 4
7 6 4 2 2 5 10 6 6 6 4 5 5 5 6 6 6 5 5 6 5 5 5 5 4 2 1 1 2 2 2 3 4 4 3 3 3 3 3 4 4 3 2 3
9 8 5 3 4 7 7 3 5 5 3 3 5 6 6 4 2 2 5 6 7 6 5 5 4 3 2 2 2 2 3 4 4 4 3 2 3 3 3 3 2 2 3 3
5 6 5 4 4 6 9 5 5 5 2 4 5 6 6 7 3 6 6 6 6 5 5 4 3 3 3 3 3 3 3 4 5 4 3 2 3 3 3 2 1 1 3 3
2 2 3 4 5 8 7 5 5 4 8 7 6 6 6 8 9 6 6 7 7 6 6 5 4 4 4 3 4 4 4 4 4 4 4 3 2 3 3 2 1 2 3 4
5 4 4 3 3 8 6 4 7 10 7 8 8 7 7 8 6 6 8 8 8 6 5 5 4 4 4 4 5 5 5 4 5 5 4 3 2 1 2 3 2 2 4 5
4 7 6 7 8 8 5 7 8 8 8 9 9 7 9 9 9 9 9 9 8 7 6 5 6 6 4 4 6 6 5 5 5 5 4 2 2 2 2 3 3 2 3 3
5 2 2 3 6 5 7 7 6 8 10 11 10 9 11 10 11 10 9 9 8 7 6 5 6 6 5 5 6 6 5 5 6 5 4 2 2 2 3 2 2 3 3 4
7 3 3 6 7 7 7 6 7 8 8 8 9 10 12 13 11 12 11 10 8 7 6 6 7 7 7 6 6 6 6 6 5 5 4 3 3 3 3 3 2 2 1 3
7 8 8 10 10 7 8 8 7 6 8 11 11 9 10 12 13 13 12 11 9 8 7 7 7 7 7 7 7 6 6 6 6 4 4 3 3 3 3 3 2 4 3 3
Wind_Direction
234 109 232 233 218 220 249 270 279 276 284 310 295 266 245 197 161 157 153 149 146 142 135 136 148 163 163 195 197 195 183 179 165 156 166 178 209 247 264 262 270 262 233 217
355 255 244 243 245 234 251 281 299 306 318 333 324 319 275 161 165 166 162 162 159 153 148 153 157 157 165 178 180 175 172 156 146 148 151 153 150 156 132 19 11 356 330 295
214 249 269 266 328 348 323 310 307 312 334 3 16 348 342 338 103 141 156 162 162 162 158 151 144 145 144 145 152 148 147 127 112 114 110 90 72 49 33 20 6 351 344 326
320 329 347 353 331 333 307 309 351 8 24 335 34 324 299 311 354 83 121 127 138 140 137 137 135 130 130 133 131 130 126 110 101 94 92 98 105 108 77 351 337 336 343 338
301 314 332 326 303 315 274 297 22 17 38 360 9 7 286 346 339 325 87 89 94 103 113 119 125 127 127 129 128 127 121 115 107 98 101 100 102 117 115 16 6 354 345 344
263 281 277 275 293 309 344 23 13 30 53 347 288 278 276 306 294 288 115 101 93 91 88 84 81 99 109 114 117 127 127 126 124 116 112 116 116 104 76 41 18 358 343 343
312 311 303 300 342 348 41 63 20 356 3 265 295 294 264 347 357 35 115 109 95 90 93 90 78 69 93 105 109 123 127 125 122 112 107 112 113 109 107 99 57 18 353 344
259 291 292 334 168 222 17 121 149 214 238 277 315 271 299 34 25 45 70 86 94 99 102 106 93 74 69 84 99 107 109 104 104 105 107 104 103 106 100 80 75 41 355 329
213 267 306 323 284 138 113 87 153 145 266 277 278 298 22 38 31 26 25 11 349 63 112 110 109 100 84 77 76 102 107 103 107 113 114 104 98 95 86 67 50 23 348 326
147 289 320 347 40 30 107 123 79 85 15 288 291 306 288 304 315 344 341 326 322 324 321 294 152 135 123 107 100 101 113 120 124 127 131 127 116 107 96 75 45 1 327 321
101 113 321 8 15 244 95 78 98 111 156 198 260 264 233 218 217 229 241 242 241 255 268 266 259 205 145 98 101 110 115 118 128 138 136 131 137 130 111 93 329 300 302 304
107 111 278 284 283 137 135 154 147 154 212 198 217 262 260 215 218 221 229 228 219 230 253 263 250 209 112 96 87 91 97 103 131 145 139 139 150 144 141 185 272 293 305 308
119 100 40 345 342 2 91 171 162 135 136 173 201 262 276 226 237 236 230 220 202 200 187 189 182 168 130 104 92 87 77 67 51 102 123 130 140 153 177 215 261 325 348 360
108 121 159 199 230 260 285 258 173 137 163 207 225 251 279 274 263 252 234 219 205 198 189 175 170 163 141 117 104 95 80 72 72 94 110 127 160 177 193 211 239 8 39 51
99 155 202 219 242 261 278 281 224 194 194 197 230 238 255 259 256 251 229 215 211 205 197 176 166 157 130 108 93 101 98 76 85 95 93 109 143 156 164 157 89 54 64 72
113 158 170 278 266 280 286 277 232 206 198 214 235 256 239 235 244 265 211 198 207 209 191 167 157 147 133 121 111 108 111 95 103 105 99 87 97 91 89 103 85 69 70 78
168 147 143 252 281 318 278 239 207 201 201 192 220 240 221 215 221 222 211 201 192 185 174 156 146 146 149 153 149 153 163 132 121 120 106 90 96 83 71 83 81 78 83 91
164 146 150 218 325 251 249 242 187 179 197 190 203 210 197 207 208 203 191 183 186 175 161 154 149 153 175 181 175 172 154 140 130 120 114 107 105 100 87 82 79 74 88 100
165 152 153 165 218 264 274 241 173 163 224 212 187 196 203 184 136 260 211 179 178 173 167 169 171 175 185 192 191 170 155 144 135 133 134 132 126 123 112 98 81 63 79 85
144 132 146 175 204 240 253 231 161 113 249 238 174 187 188 147 171 250 218 176 168 163 162 168 170 156 166 191 171 152 150 147 152 156 158 144 135 134 137 135 104 66 83 87
117 139 175 206 234 261 248 192 131 157 231 218 197 202 189 188 207 217 173 165 166 169 177 174 166 164 182 179 147 148 151 160 161 147 130 111 119 143 146 138 113 101 96 90
196 189 205 194 225 259 240 186 183 211 204 199 206 208 194 196 190 171 162 164 169 177 184 174 162 172 181 164 142 143 153 158 139 127 116 102 88 123 137 130 117 110 114 111
214 192 194 196 215 240 237 225 218 181 184 201 202 199 174 169 176 175 174 175 181 187 191 176 165 169 176 166 150 151 165 148 132 126 124 116 89 74 110 127 129 121 121 127
273 220 189 256 264 267 259 248 220 199 198 199 192 183 171 176 182 180 181 183 185 188 186 171 161 165 177 175 164 166 167 152 140 146 152 146 121 92 83 91 111 127 140 144
235 269 260 260 270 286 281 265 243 231 215 198 191 184 181 177 180 182 183 184 186 184 179 167 167 175 182 178 175 175 167 154 156 165 172 168 151 133 107 87 81 114 131 172
220 224 230 245 240 230 252 262 261 241 220 202 194 193 185 177 179 180 183 184 182 180 173 169 171 175 181 177 180 184 175 163 161 170 179 177 167 158 146 130 85 52 91 101